Previsão horária em Almazne

Hoje, 15 Janeiro, Sexta-feira

Tempo Temperatura Precipitação Vento Pressão Humidade
00:00 +2°C° 0.3 mm 1 m/s 752 mmHg 94%
01:00 +2°C° 0.3 mm 1 m/s 753 mmHg 93%
02:00 +2°C° 0 mm 1 m/s 753 mmHg 93%
03:00 +2°C° 0.1 mm 1 m/s 753 mmHg 93%
04:00 +2°C° 0.1 mm 1 m/s 753 mmHg 92%
05:00 +2°C° 0.1 mm 1 m/s 754 mmHg 91%
06:00 +2°C° 0 mm 1 m/s 754 mmHg 90%
07:00 +1°C° 0 mm 1 m/s 754 mmHg 89%
08:00 +1°C° 0 mm 1 m/s 755 mmHg 85%
09:00 +2°C° 0 mm 1 m/s 755 mmHg 78%
10:00 +3°C° 0 mm 1 m/s 755 mmHg 72%
11:00 +4°C° 0 mm 1 m/s 756 mmHg 65%
12:00 +4°C° 0 mm 1 m/s 755 mmHg 61%
13:00 +5°C° 0 mm 1 m/s 755 mmHg 57%
14:00 +5°C° 0 mm 1 m/s 755 mmHg 52%
15:00 +4°C° 0 mm 1 m/s 755 mmHg 56%
16:00 +4°C° 0 mm 1 m/s 755 mmHg 60%
17:00 +3°C° 0 mm 1 m/s 756 mmHg 64%
18:00 +1°C° 0 mm 2 m/s 756 mmHg 72%
19:00 -1°C° 0 mm 4 m/s 756 mmHg 80%
20:00 -2°C° 0 mm 5 m/s 757 mmHg 88%
21:00 -2°C° 0 mm 5 m/s 757 mmHg 84%
22:00 -4°C° 0 mm 5 m/s 758 mmHg 80%
23:00 -5°C° 0 mm 5 m/s 758 mmHg 77%

Amanhã, 16 Janeiro, Sábado

Tempo Temperatura Precipitação Vento Pressão Humidade
00:00 -4°C° 0 mm 4 m/s 758 mmHg 76%
01:00 -4°C° 0 mm 4 m/s 759 mmHg 75%
02:00 -5°C° 0 mm 3 m/s 759 mmHg 74%
03:00 -5°C° 0 mm 4 m/s 759 mmHg 72%
04:00 -5°C° 0 mm 4 m/s 759 mmHg 70%
05:00 -7°C° 0 mm 4 m/s 759 mmHg 67%
06:00 -6°C° 0 mm 3 m/s 760 mmHg 66%
07:00 -5°C° 0 mm 2 m/s 760 mmHg 65%
08:00 -5°C° 0 mm 2 m/s 760 mmHg 63%
09:00 -2°C° 0 mm 1 m/s 760 mmHg 61%
10:00 -1°C° 0 mm 1 m/s 760 mmHg 59%
11:00 0°C° 0 mm 1 m/s 761 mmHg 57%
12:00 -1°C° 0 mm 2 m/s 760 mmHg 58%
13:00 -1°C° 0 mm 2 m/s 760 mmHg 58%
14:00 -1°C° 0 mm 3 m/s 759 mmHg 59%
15:00 -2°C° 0 mm 3 m/s 759 mmHg 65%
16:00 -4°C° 0 mm 3 m/s 759 mmHg 71%
17:00 -4°C° 0 mm 3 m/s 759 mmHg 77%
18:00 -4°C° 0 mm 3 m/s 759 mmHg 76%
19:00 -4°C° 0 mm 3 m/s 759 mmHg 75%
20:00 -4°C° 0 mm 3 m/s 758 mmHg 73%
21:00 -4°C° 0 mm 4 m/s 758 mmHg 72%
22:00 -3°C° 0 mm 4 m/s 758 mmHg 71%
23:00 -4°C° 0 mm 5 m/s 758 mmHg 69%

Depois de amanhã, 17 Janeiro, Domingo

Tempo Temperatura Precipitação Vento Pressão Humidade
00:00 -4°C° 0 mm 6 m/s 757 mmHg 69%
01:00 -4°C° 0 mm 6 m/s 756 mmHg 69%
02:00 -4°C° 0 mm 7 m/s 756 mmHg 69%
03:00 -4°C° 0.1 mm 7 m/s 756 mmHg 70%
04:00 -4°C° 0.1 mm 7 m/s 755 mmHg 71%
05:00 -6°C° 0.1 mm 7 m/s 755 mmHg 73%
06:00 -6°C° 0.2 mm 7 m/s 755 mmHg 76%
07:00 -6°C° 0.2 mm 7 m/s 755 mmHg 79%
08:00 -6°C° 0.2 mm 7 m/s 755 mmHg 82%
09:00 -6°C° 0.5 mm 7 m/s 755 mmHg 83%
10:00 -6°C° 0.5 mm 7 m/s 755 mmHg 84%
11:00 -6°C° 0.5 mm 7 m/s 755 mmHg 85%
12:00 -7°C° 0.4 mm 7 m/s 755 mmHg 85%
13:00 -7°C° 0.4 mm 7 m/s 755 mmHg 85%
14:00 -7°C° 0.4 mm 7 m/s 755 mmHg 85%
15:00 -8°C° 0.3 mm 7 m/s 755 mmHg 85%
16:00 -8°C° 0.3 mm 6 m/s 756 mmHg 85%
17:00 -8°C° 0.3 mm 6 m/s 756 mmHg 85%
18:00 -9°C° 0.1 mm 6 m/s 756 mmHg 84%
19:00 -9°C° 0.1 mm 6 m/s 757 mmHg 84%
20:00 -9°C° 0.1 mm 6 m/s 757 mmHg 84%
21:00 -10°C° 0 mm 5 m/s 757 mmHg 83%
22:00 -10°C° 0 mm 5 m/s 757 mmHg 83%
23:00 -11°C° 0 mm 5 m/s 757 mmHg 82%

18 Janeiro, Segunda-feira

Tempo Temperatura Precipitação Vento Pressão Humidade
00:00 -11°C° 0 mm 5 m/s 758 mmHg 82%
01:00 -12°C° 0 mm 5 m/s 758 mmHg 81%
02:00 -11°C° 0 mm 4 m/s 758 mmHg 81%
03:00 -12°C° 0 mm 4 m/s 759 mmHg 81%
04:00 -12°C° 0 mm 4 m/s 759 mmHg 81%
05:00 -12°C° 0 mm 4 m/s 759 mmHg 80%
06:00 -12°C° 0 mm 4 m/s 760 mmHg 80%
07:00 -12°C° 0 mm 4 m/s 760 mmHg 79%
08:00 -12°C° 0 mm 4 m/s 761 mmHg 79%
09:00 -12°C° 0 mm 4 m/s 761 mmHg 75%
10:00 -11°C° 0 mm 4 m/s 761 mmHg 72%
11:00 -11°C° 0 mm 4 m/s 762 mmHg 69%
12:00 -10°C° 0 mm 4 m/s 762 mmHg 65%
13:00 -10°C° 0 mm 5 m/s 762 mmHg 62%
14:00 -10°C° 0 mm 5 m/s 762 mmHg 58%
15:00 -10°C° 0 mm 4 m/s 762 mmHg 62%
16:00 -10°C° 0 mm 4 m/s 763 mmHg 65%
17:00 -10°C° 0 mm 3 m/s 763 mmHg 68%
18:00 -10°C° 0 mm 3 m/s 763 mmHg 70%
19:00 -10°C° 0 mm 3 m/s 763 mmHg 72%
20:00 -10°C° 0 mm 2 m/s 764 mmHg 74%
21:00 -9°C° 0 mm 2 m/s 764 mmHg 75%
22:00 -9°C° 0 mm 2 m/s 764 mmHg 76%
23:00 -9°C° 0 mm 2 m/s 764 mmHg 77%

19 Janeiro, Terça-feira

Tempo Temperatura Precipitação Vento Pressão Humidade
00:00 -9°C° 0 mm 2 m/s 764 mmHg 77%
01:00 -9°C° 0 mm 2 m/s 764 mmHg 77%
02:00 -8°C° 0 mm 2 m/s 764 mmHg 77%
03:00 -8°C° 0 mm 2 m/s 764 mmHg 77%
04:00 -8°C° 0 mm 2 m/s 764 mmHg 77%
05:00 -8°C° 0 mm 2 m/s 764 mmHg 77%
06:00 -8°C° 0 mm 2 m/s 764 mmHg 79%
07:00 -8°C° 0 mm 2 m/s 764 mmHg 81%
08:00 -8°C° 0 mm 2 m/s 764 mmHg 82%
09:00 -8°C° 0 mm 2 m/s 764 mmHg 79%
10:00 -7°C° 0 mm 2 m/s 764 mmHg 75%
11:00 -6°C° 0 mm 2 m/s 764 mmHg 71%
12:00 -6°C° 0 mm 2 m/s 764 mmHg 70%
13:00 -6°C° 0 mm 2 m/s 764 mmHg 69%
14:00 -7°C° 0 mm 3 m/s 764 mmHg 68%
15:00 -7°C° 0 mm 3 m/s 764 mmHg 70%
16:00 -8°C° 0 mm 3 m/s 764 mmHg 73%
17:00 -9°C° 0 mm 3 m/s 764 mmHg 75%
18:00 -9°C° 0 mm 3 m/s 765 mmHg 77%
19:00 -10°C° 0 mm 3 m/s 765 mmHg 78%
20:00 -10°C° 0 mm 3 m/s 765 mmHg 79%
21:00 -10°C° 0 mm 3 m/s 766 mmHg 80%
22:00 -10°C° 0 mm 3 m/s 766 mmHg 81%
23:00 -10°C° 0 mm 3 m/s 766 mmHg 82%

20 Janeiro, Quarta-feira

Tempo Temperatura Precipitação Vento Pressão Humidade
00:00 -10°C° 0 mm 3 m/s 766 mmHg 82%
01:00 -12°C° 0 mm 3 m/s 766 mmHg 83%
02:00 -12°C° 0 mm 3 m/s 767 mmHg 84%
03:00 -12°C° 0 mm 3 m/s 767 mmHg 85%
04:00 -12°C° 0 mm 3 m/s 767 mmHg 86%
05:00 -12°C° 0 mm 3 m/s 767 mmHg 87%
06:00 -12°C° 0 mm 3 m/s 768 mmHg 86%
07:00 -12°C° 0 mm 3 m/s 768 mmHg 86%
08:00 -12°C° 0 mm 3 m/s 768 mmHg 86%
09:00 -12°C° 0 mm 3 m/s 769 mmHg 81%
10:00 -10°C° 0 mm 3 m/s 769 mmHg 77%
11:00 -10°C° 0 mm 4 m/s 769 mmHg 72%
12:00 -9°C° 0 mm 3 m/s 769 mmHg 70%
13:00 -8°C° 0 mm 3 m/s 769 mmHg 68%
14:00 -8°C° 0 mm 3 m/s 769 mmHg 66%
15:00 -8°C° 0 mm 3 m/s 769 mmHg 68%
16:00 -8°C° 0 mm 2 m/s 769 mmHg 70%
17:00 -9°C° 0 mm 2 m/s 770 mmHg 72%
18:00 -9°C° 0 mm 2 m/s 770 mmHg 72%
19:00 -9°C° 0 mm 2 m/s 770 mmHg 72%
20:00 -9°C° 0 mm 2 m/s 771 mmHg 72%
21:00 -9°C° 0 mm 2 m/s 771 mmHg 72%
22:00 -10°C° 0 mm 2 m/s 771 mmHg 73%
23:00 -10°C° 0 mm 2 m/s 771 mmHg 73%
Mostrar mais

Necessitamos do seu Consentimento

A Meteoprog e os seus Fornecedores de Serviços podem armazenar e aceder a dados pessoais como cookies, identificadores do dispositivo ou outras tecnologias semelhantes existentes no seu dispositivo e processar estes dados para personalizar conteúdos e anúncios, assim como funcionalidades nas redes sociais e análise de tráfego.

  • Armazenar e/ou aceder a informações no seu dispositivo

    Os cookies, identificadores do dispositivo ou outras informações podem ser armazenados ou acedidos no seu dispositivo, para os fins acima indicados.

  • Anúncios e conteúdos personalizados, medição de anúncios e conteúdos, dados sobre o público-alvo e desenvolvimento de produtos

    Os anúncios e os conteúdos podem ser personalizados com base num perfil. Podem ser adicionados dados adicionais para uma maior personalização dos anúncios e dos conteúdos. A eficácia dos anúncios e dos conteúdos pode ser medida. Podem ser obtidas informações sobre o público que visualizou os anúncios e os conteúdos. Estes dados podem ser usados para desenvolver ou melhorar sistemas, softwares ou a experiência do utilizador.

Ao clicar em "Eu concordo”, permitirá o uso de cookies, identificadores do dispositivo e web beacons mencionados ou outras tecnologias semelhantes. As configurações do navegador do seu dispositivo podem ser alteradas.

Para certos fins, podem ser invocados interesses legítimos ao invés de consentimento. Pode ler mais informação sobre este assunto na nossa Política de Privacidade e Cookies.